#datetime,building,power
2023-07-24T00:00:00,axn,28.04
2023-07-24T00:01:00,axn,28.14
2023-07-24T00:02:00,axn,28.04
2023-07-24T00:03:00,axn,28.38
2023-07-24T00:04:00,axn,27.94
2023-07-24T00:05:00,axn,27.48
2023-07-24T00:06:00,axn,27.22
2023-07-24T00:07:00,axn,27.19
2023-07-24T00:08:00,axn,27.05
2023-07-24T00:09:00,axn,27.06
2023-07-24T00:10:00,axn,27.37
2023-07-24T00:11:00,axn,27.26
2023-07-24T00:12:00,axn,27.13
2023-07-24T00:13:00,axn,27.08
2023-07-24T00:14:00,axn,27.03
2023-07-24T00:15:00,axn,41.96
2023-07-24T00:16:00,axn,41.83
2023-07-24T00:17:00,axn,42.17
2023-07-24T00:18:00,axn,41.70
2023-07-24T00:19:00,axn,41.84
2023-07-24T00:20:00,axn,41.80
2023-07-24T00:21:00,axn,27.52
2023-07-24T00:22:00,axn,27.55
2023-07-24T00:23:00,axn,27.42
2023-07-24T00:24:00,axn,26.94
2023-07-24T00:25:00,axn,26.94
2023-07-24T00:26:00,axn,27.04
2023-07-24T00:27:00,axn,27.05
2023-07-24T00:28:00,axn,27.16
2023-07-24T00:29:00,axn,27.21
2023-07-24T00:30:00,axn,27.02
2023-07-24T00:31:00,axn,26.91
2023-07-24T00:32:00,axn,26.83
2023-07-24T00:33:00,axn,26.99
2023-07-24T00:34:00,axn,26.87
2023-07-24T00:35:00,axn,26.93
2023-07-24T00:36:00,axn,26.67
2023-07-24T00:37:00,axn,26.76
2023-07-24T00:38:00,axn,27.01
2023-07-24T00:39:00,axn,26.82
2023-07-24T00:40:00,axn,26.75
2023-07-24T00:41:00,axn,26.83
2023-07-24T00:42:00,axn,26.74
2023-07-24T00:43:00,axn,26.67
2023-07-24T00:44:00,axn,26.66
2023-07-24T00:45:00,axn,27.32
2023-07-24T00:46:00,axn,27.42
2023-07-24T00:47:00,axn,27.42
2023-07-24T00:48:00,axn,27.39
2023-07-24T00:49:00,axn,27.55
2023-07-24T00:50:00,axn,27.60
2023-07-24T00:51:00,axn,27.52
2023-07-24T00:52:00,axn,27.52
2023-07-24T00:53:00,axn,27.54
2023-07-24T00:54:00,axn,27.68
2023-07-24T00:55:00,axn,27.79
2023-07-24T00:56:00,axn,27.69
2023-07-24T00:57:00,axn,27.66
2023-07-24T00:58:00,axn,27.75
2023-07-24T00:59:00,axn,27.84
2023-07-24T01:00:00,axn,27.71
2023-07-24T01:01:00,axn,28.10
2023-07-24T01:02:00,axn,27.77
2023-07-24T01:03:00,axn,27.78
2023-07-24T01:04:00,axn,27.94
2023-07-24T01:05:00,axn,27.94
2023-07-24T01:06:00,axn,27.88
2023-07-24T01:07:00,axn,28.05
2023-07-24T01:08:00,axn,27.98
2023-07-24T01:09:00,axn,28.10
2023-07-24T01:10:00,axn,28.19
2023-07-24T01:11:00,axn,28.04
2023-07-24T01:12:00,axn,28.09
2023-07-24T01:13:00,axn,27.74
2023-07-24T01:14:00,axn,27.25
2023-07-24T01:15:00,axn,27.21
2023-07-24T01:16:00,axn,27.36
2023-07-24T01:17:00,axn,27.21
2023-07-24T01:18:00,axn,27.31
2023-07-24T01:19:00,axn,27.38
2023-07-24T01:20:00,axn,27.32
2023-07-24T01:21:00,axn,27.35
2023-07-24T01:22:00,axn,27.36
2023-07-24T01:23:00,axn,27.45
2023-07-24T01:24:00,axn,27.45
2023-07-24T01:25:00,axn,27.55
2023-07-24T01:26:00,axn,27.52
2023-07-24T01:27:00,axn,27.62
2023-07-24T01:28:00,axn,27.59
2023-07-24T01:29:00,axn,27.59
2023-07-24T01:30:00,axn,27.56
2023-07-24T01:31:00,axn,27.71
2023-07-24T01:32:00,axn,27.74
2023-07-24T01:33:00,axn,28.13
2023-07-24T01:34:00,axn,27.68
2023-07-24T01:35:00,axn,32.15
2023-07-24T01:36:00,axn,32.47
2023-07-24T01:37:00,axn,32.39
2023-07-24T01:38:00,axn,27.75
2023-07-24T01:39:00,axn,28.34
2023-07-24T01:40:00,axn,37.98
2023-07-24T01:41:00,axn,27.30
2023-07-24T01:42:00,axn,27.44
2023-07-24T01:43:00,axn,27.52
2023-07-24T01:44:00,axn,27.69
2023-07-24T01:45:00,axn,27.35
2023-07-24T01:46:00,axn,27.73
2023-07-24T01:47:00,axn,27.34
2023-07-24T01:48:00,axn,27.31
2023-07-24T01:49:00,axn,27.42
2023-07-24T01:50:00,axn,27.54
2023-07-24T01:51:00,axn,27.42
2023-07-24T01:52:00,axn,27.26
2023-07-24T01:53:00,axn,27.22
2023-07-24T01:54:00,axn,27.29
2023-07-24T01:55:00,axn,27.06
2023-07-24T01:56:00,axn,27.38
2023-07-24T01:57:00,axn,27.05
2023-07-24T01:58:00,axn,27.75
2023-07-24T01:59:00,axn,27.42
2023-07-24T02:00:00,axn,27.18
2023-07-24T02:01:00,axn,27.33
2023-07-24T02:02:00,axn,27.50
2023-07-24T02:03:00,axn,27.51
2023-07-24T02:04:00,axn,27.44
2023-07-24T02:05:00,axn,27.43
2023-07-24T02:06:00,axn,27.35
2023-07-24T02:07:00,axn,27.48
2023-07-24T02:08:00,axn,27.31
2023-07-24T02:09:00,axn,27.21
2023-07-24T02:10:00,axn,27.28
2023-07-24T02:11:00,axn,27.25
2023-07-24T02:12:00,axn,27.26
2023-07-24T02:13:00,axn,27.30
2023-07-24T02:14:00,axn,27.24
2023-07-24T02:15:00,axn,27.33
2023-07-24T02:16:00,axn,27.24
2023-07-24T02:17:00,axn,27.34
2023-07-24T02:18:00,axn,27.09
2023-07-24T02:19:00,axn,27.22
2023-07-24T02:20:00,axn,27.52
2023-07-24T02:21:00,axn,27.29
2023-07-24T02:22:00,axn,27.23
2023-07-24T02:23:00,axn,27.21
2023-07-24T02:24:00,axn,27.56
2023-07-24T02:25:00,axn,27.15
2023-07-24T02:26:00,axn,27.07
2023-07-24T02:27:00,axn,27.13
2023-07-24T02:28:00,axn,27.07
2023-07-24T02:29:00,axn,27.18
2023-07-24T02:30:00,axn,27.31
2023-07-24T02:31:00,axn,27.32
2023-07-24T02:32:00,axn,27.35
2023-07-24T02:33:00,axn,27.21
2023-07-24T02:34:00,axn,27.88
2023-07-24T02:35:00,axn,28.24
2023-07-24T02:36:00,axn,28.14
2023-07-24T02:37:00,axn,28.24
2023-07-24T02:38:00,axn,28.24
2023-07-24T02:39:00,axn,28.33
2023-07-24T02:40:00,axn,28.31
2023-07-24T02:41:00,axn,28.53
2023-07-24T02:42:00,axn,28.34
2023-07-24T02:43:00,axn,28.50
2023-07-24T02:44:00,axn,28.26
2023-07-24T02:45:00,axn,28.25
2023-07-24T02:46:00,axn,28.26
2023-07-24T02:47:00,axn,30.51
2023-07-24T02:48:00,axn,30.55
2023-07-24T02:49:00,axn,30.51
2023-07-24T02:50:00,axn,30.48
2023-07-24T02:51:00,axn,30.93
2023-07-24T02:52:00,axn,30.89
2023-07-24T02:53:00,axn,30.50
2023-07-24T02:54:00,axn,30.62
2023-07-24T02:55:00,axn,32.81
2023-07-24T02:56:00,axn,33.40
2023-07-24T02:57:00,axn,33.47
2023-07-24T02:58:00,axn,33.45
2023-07-24T02:59:00,axn,30.61
2023-07-24T03:00:00,axn,31.07
2023-07-24T03:01:00,axn,30.82
2023-07-24T03:02:00,axn,30.86
2023-07-24T03:03:00,axn,30.95
2023-07-24T03:04:00,axn,30.97
2023-07-24T03:05:00,axn,31.00
2023-07-24T03:06:00,axn,31.19
2023-07-24T03:07:00,axn,34.43
2023-07-24T03:08:00,axn,31.30
2023-07-24T03:09:00,axn,31.18
2023-07-24T03:10:00,axn,31.01
2023-07-24T03:11:00,axn,31.02
2023-07-24T03:12:00,axn,31.06
2023-07-24T03:13:00,axn,31.08
2023-07-24T03:14:00,axn,31.46
2023-07-24T03:15:00,axn,31.20
2023-07-24T03:16:00,axn,31.20
2023-07-24T03:17:00,axn,31.67
2023-07-24T03:18:00,axn,31.16
2023-07-24T03:19:00,axn,31.32
2023-07-24T03:20:00,axn,31.20
2023-07-24T03:21:00,axn,31.61
2023-07-24T03:22:00,axn,31.37
2023-07-24T03:23:00,axn,31.16
2023-07-24T03:24:00,axn,31.12
2023-07-24T03:25:00,axn,31.09
2023-07-24T03:26:00,axn,30.92
2023-07-24T03:27:00,axn,31.05
2023-07-24T03:28:00,axn,31.48
2023-07-24T03:29:00,axn,31.21
2023-07-24T03:30:00,axn,31.25
2023-07-24T03:31:00,axn,31.15
2023-07-24T03:32:00,axn,31.45
2023-07-24T03:33:00,axn,31.55
2023-07-24T03:34:00,axn,31.70
2023-07-24T03:35:00,axn,31.41
2023-07-24T03:36:00,axn,31.40
2023-07-24T03:37:00,axn,31.63
2023-07-24T03:38:00,axn,31.08
2023-07-24T03:39:00,axn,31.19
2023-07-24T03:40:00,axn,31.18
2023-07-24T03:41:00,axn,36.54
2023-07-24T03:42:00,axn,31.46
2023-07-24T03:43:00,axn,31.42
2023-07-24T03:44:00,axn,31.47
2023-07-24T03:45:00,axn,31.27
2023-07-24T03:46:00,axn,31.30
2023-07-24T03:47:00,axn,31.46
2023-07-24T03:48:00,axn,31.39
2023-07-24T03:49:00,axn,31.19
2023-07-24T03:50:00,axn,31.30
2023-07-24T03:51:00,axn,31.29
2023-07-24T03:52:00,axn,31.37
2023-07-24T03:53:00,axn,31.34
2023-07-24T03:54:00,axn,31.27
2023-07-24T03:55:00,axn,31.32
2023-07-24T03:56:00,axn,31.24
2023-07-24T03:57:00,axn,31.17
2023-07-24T03:58:00,axn,31.16
2023-07-24T03:59:00,axn,31.14
2023-07-24T04:00:00,axn,31.16
2023-07-24T04:01:00,axn,31.23
2023-07-24T04:02:00,axn,31.23
2023-07-24T04:03:00,axn,31.13
2023-07-24T04:04:00,axn,31.06
2023-07-24T04:05:00,axn,30.90
2023-07-24T04:06:00,axn,30.97
2023-07-24T04:07:00,axn,30.84
2023-07-24T04:08:00,axn,30.79
2023-07-24T04:09:00,axn,30.70
2023-07-24T04:10:00,axn,30.23
2023-07-24T04:11:00,axn,30.32
2023-07-24T04:12:00,axn,30.14
2023-07-24T04:13:00,axn,30.23
2023-07-24T04:14:00,axn,30.36
2023-07-24T04:15:00,axn,30.07
2023-07-24T04:16:00,axn,30.40
2023-07-24T04:17:00,axn,30.24
2023-07-24T04:18:00,axn,30.11
2023-07-24T04:19:00,axn,30.19
2023-07-24T04:20:00,axn,30.30
2023-07-24T04:21:00,axn,30.18
2023-07-24T04:22:00,axn,30.18
2023-07-24T04:23:00,axn,30.34
2023-07-24T04:24:00,axn,30.22
2023-07-24T04:25:00,axn,30.38
2023-07-24T04:26:00,axn,30.21
2023-07-24T04:27:00,axn,30.23
2023-07-24T04:28:00,axn,30.28
2023-07-24T04:29:00,axn,36.14
2023-07-24T04:30:00,axn,36.05
2023-07-24T04:31:00,axn,35.41
2023-07-24T04:32:00,axn,35.39
2023-07-24T04:33:00,axn,27.79
2023-07-24T04:34:00,axn,43.42
2023-07-24T04:35:00,axn,28.12
2023-07-24T04:36:00,axn,28.48
2023-07-24T04:37:00,axn,28.23
2023-07-24T04:38:00,axn,28.32
2023-07-24T04:39:00,axn,28.64
2023-07-24T04:40:00,axn,28.07
2023-07-24T04:41:00,axn,28.06
2023-07-24T04:42:00,axn,27.98
2023-07-24T04:43:00,axn,28.08
2023-07-24T04:44:00,axn,28.31
2023-07-24T04:45:00,axn,28.33
2023-07-24T04:46:00,axn,28.32
2023-07-24T04:47:00,axn,28.39
2023-07-24T04:48:00,axn,28.21
2023-07-24T04:49:00,axn,28.37
2023-07-24T04:50:00,axn,28.35
2023-07-24T04:51:00,axn,28.43
2023-07-24T04:52:00,axn,28.50
2023-07-24T04:53:00,axn,28.36
2023-07-24T04:54:00,axn,28.40
2023-07-24T04:55:00,axn,28.61
2023-07-24T04:56:00,axn,28.51
2023-07-24T04:57:00,axn,28.25
2023-07-24T04:58:00,axn,28.33
2023-07-24T04:59:00,axn,28.50
2023-07-24T05:00:00,axn,28.24
2023-07-24T05:01:00,axn,26.95
2023-07-24T05:02:00,axn,33.02
2023-07-24T05:03:00,axn,26.55
2023-07-24T05:04:00,axn,26.66
2023-07-24T05:05:00,axn,26.73
2023-07-24T05:06:00,axn,26.74
2023-07-24T05:07:00,axn,26.86
2023-07-24T05:08:00,axn,26.56
2023-07-24T05:09:00,axn,26.61
2023-07-24T05:10:00,axn,26.61
2023-07-24T05:11:00,axn,26.50
2023-07-24T05:12:00,axn,26.28
2023-07-24T05:13:00,axn,27.13
2023-07-24T05:14:00,axn,26.29
2023-07-24T05:15:00,axn,26.11
2023-07-24T05:16:00,axn,26.07
2023-07-24T05:17:00,axn,26.09
2023-07-24T05:18:00,axn,26.47
2023-07-24T05:19:00,axn,26.17
2023-07-24T05:20:00,axn,26.02
2023-07-24T05:21:00,axn,25.92
2023-07-24T05:22:00,axn,26.02
2023-07-24T05:23:00,axn,25.86
2023-07-24T05:24:00,axn,25.89
2023-07-24T05:25:00,axn,25.81
2023-07-24T05:26:00,axn,26.06
2023-07-24T05:27:00,axn,26.06
2023-07-24T05:28:00,axn,25.95
2023-07-24T05:29:00,axn,25.87
2023-07-24T05:30:00,axn,26.17
2023-07-24T05:31:00,axn,28.88
2023-07-24T05:32:00,axn,28.95
2023-07-24T05:33:00,axn,28.79
2023-07-24T05:34:00,axn,28.78
2023-07-24T05:35:00,axn,28.85
2023-07-24T05:36:00,axn,28.67
2023-07-24T05:37:00,axn,28.46
2023-07-24T05:38:00,axn,28.86
2023-07-24T05:39:00,axn,28.23
2023-07-24T05:40:00,axn,28.20
2023-07-24T05:41:00,axn,28.15
2023-07-24T05:42:00,axn,28.09
2023-07-24T05:43:00,axn,28.05
2023-07-24T05:44:00,axn,28.28
2023-07-24T05:45:00,axn,28.04
2023-07-24T05:46:00,axn,28.16
2023-07-24T05:47:00,axn,28.44
2023-07-24T05:48:00,axn,28.09
2023-07-24T05:49:00,axn,28.01
2023-07-24T05:50:00,axn,28.02
2023-07-24T05:51:00,axn,28.43
2023-07-24T05:52:00,axn,27.83
2023-07-24T05:53:00,axn,45.19
2023-07-24T05:54:00,axn,28.02
2023-07-24T05:55:00,axn,28.09
2023-07-24T05:56:00,axn,28.20
2023-07-24T05:57:00,axn,27.99
2023-07-24T05:58:00,axn,28.17
2023-07-24T05:59:00,axn,28.31
2023-07-24T06:00:00,axn,28.28
2023-07-24T06:01:00,axn,31.41
2023-07-24T06:02:00,axn,28.33
2023-07-24T06:03:00,axn,28.31
2023-07-24T06:04:00,axn,28.19
2023-07-24T06:05:00,axn,28.41
2023-07-24T06:06:00,axn,28.37
2023-07-24T06:07:00,axn,30.29
2023-07-24T06:08:00,axn,28.81
2023-07-24T06:09:00,axn,28.29
2023-07-24T06:10:00,axn,28.19
2023-07-24T06:11:00,axn,39.15
2023-07-24T06:12:00,axn,28.11
2023-07-24T06:13:00,axn,28.34
2023-07-24T06:14:00,axn,28.42
2023-07-24T06:15:00,axn,28.28
2023-07-24T06:16:00,axn,28.32
2023-07-24T06:17:00,axn,28.04
2023-07-24T06:18:00,axn,29.05
2023-07-24T06:19:00,axn,28.00
2023-07-24T06:20:00,axn,27.94
2023-07-24T06:21:00,axn,27.96
2023-07-24T06:22:00,axn,27.81
2023-07-24T06:23:00,axn,27.83
2023-07-24T06:24:00,axn,27.79
2023-07-24T06:25:00,axn,27.78
2023-07-24T06:26:00,axn,27.84
2023-07-24T06:27:00,axn,27.75
2023-07-24T06:28:00,axn,27.71
2023-07-24T06:29:00,axn,28.49
2023-07-24T06:30:00,axn,28.19
2023-07-24T06:31:00,axn,28.25
2023-07-24T06:32:00,axn,27.69
2023-07-24T06:33:00,axn,27.78
2023-07-24T06:34:00,axn,27.77
2023-07-24T06:35:00,axn,27.93
2023-07-24T06:36:00,axn,27.24
2023-07-24T06:37:00,axn,27.58
2023-07-24T06:38:00,axn,27.68
2023-07-24T06:39:00,axn,30.45
2023-07-24T06:40:00,axn,30.30
2023-07-24T06:41:00,axn,29.85
2023-07-24T06:42:00,axn,27.04
2023-07-24T06:43:00,axn,27.37
2023-07-24T06:44:00,axn,27.03
2023-07-24T06:45:00,axn,26.96
2023-07-24T06:46:00,axn,27.00
2023-07-24T06:47:00,axn,41.32
2023-07-24T06:48:00,axn,40.94
2023-07-24T06:49:00,axn,40.81
2023-07-24T06:50:00,axn,40.77
2023-07-24T06:51:00,axn,40.34
2023-07-24T06:52:00,axn,40.34
2023-07-24T06:53:00,axn,26.56
2023-07-24T06:54:00,axn,26.57
2023-07-24T06:55:00,axn,26.52
2023-07-24T06:56:00,axn,26.48
2023-07-24T06:57:00,axn,26.49
2023-07-24T06:58:00,axn,26.93
2023-07-24T06:59:00,axn,26.85
2023-07-24T07:00:00,axn,26.68
2023-07-24T07:01:00,axn,29.51
2023-07-24T07:02:00,axn,33.32
2023-07-24T07:03:00,axn,33.48
2023-07-24T07:04:00,axn,32.97
2023-07-24T07:05:00,axn,32.64
2023-07-24T07:06:00,axn,32.67
2023-07-24T07:07:00,axn,32.86
2023-07-24T07:08:00,axn,32.72
2023-07-24T07:09:00,axn,32.85
2023-07-24T07:10:00,axn,32.98
2023-07-24T07:11:00,axn,33.52
2023-07-24T07:12:00,axn,33.27
2023-07-24T07:13:00,axn,33.24
2023-07-24T07:14:00,axn,32.90
2023-07-24T07:15:00,axn,32.60
2023-07-24T07:16:00,axn,33.47
2023-07-24T07:17:00,axn,33.45
2023-07-24T07:18:00,axn,33.29
2023-07-24T07:19:00,axn,33.63
2023-07-24T07:20:00,axn,33.43
2023-07-24T07:21:00,axn,33.35
2023-07-24T07:22:00,axn,33.47
2023-07-24T07:23:00,axn,39.11
2023-07-24T07:24:00,axn,33.79
2023-07-24T07:25:00,axn,33.44
2023-07-24T07:26:00,axn,33.36
2023-07-24T07:27:00,axn,33.75
2023-07-24T07:28:00,axn,33.70
2023-07-24T07:29:00,axn,34.45
2023-07-24T07:30:00,axn,33.45
2023-07-24T07:31:00,axn,33.83
2023-07-24T07:32:00,axn,34.11
2023-07-24T07:33:00,axn,33.84
2023-07-24T07:34:00,axn,35.07
2023-07-24T07:35:00,axn,35.73
2023-07-24T07:36:00,axn,37.25
2023-07-24T07:37:00,axn,36.91
2023-07-24T07:38:00,axn,37.07
2023-07-24T07:39:00,axn,36.32
2023-07-24T07:40:00,axn,37.73
2023-07-24T07:41:00,axn,37.67
2023-07-24T07:42:00,axn,38.01
2023-07-24T07:43:00,axn,39.10
2023-07-24T07:44:00,axn,38.48
2023-07-24T07:45:00,axn,39.45
2023-07-24T07:46:00,axn,39.01
2023-07-24T07:47:00,axn,39.09
2023-07-24T07:48:00,axn,39.77
2023-07-24T07:49:00,axn,39.68
2023-07-24T07:50:00,axn,39.88
2023-07-24T07:51:00,axn,39.68
2023-07-24T07:52:00,axn,40.31
2023-07-24T07:53:00,axn,40.85
2023-07-24T07:54:00,axn,40.87
2023-07-24T07:55:00,axn,41.17
2023-07-24T07:56:00,axn,41.01
2023-07-24T07:57:00,axn,40.96
2023-07-24T07:58:00,axn,40.76
2023-07-24T07:59:00,axn,41.09
2023-07-24T08:00:00,axn,41.27
2023-07-24T08:01:00,axn,43.87
2023-07-24T08:02:00,axn,45.52
2023-07-24T08:03:00,axn,45.45
2023-07-24T08:04:00,axn,45.55
2023-07-24T08:05:00,axn,45.45
2023-07-24T08:06:00,axn,45.46
2023-07-24T08:07:00,axn,45.42
2023-07-24T08:08:00,axn,45.81
2023-07-24T08:09:00,axn,45.80
2023-07-24T08:10:00,axn,46.12
2023-07-24T08:11:00,axn,46.42
2023-07-24T08:12:00,axn,46.11
2023-07-24T08:13:00,axn,46.73
2023-07-24T08:14:00,axn,47.18
2023-07-24T08:15:00,axn,47.01
2023-07-24T08:16:00,axn,47.73
2023-07-24T08:17:00,axn,46.60
2023-07-24T08:18:00,axn,46.34
2023-07-24T08:19:00,axn,46.40
2023-07-24T08:20:00,axn,46.12
2023-07-24T08:21:00,axn,46.23
2023-07-24T08:22:00,axn,46.27
2023-07-24T08:23:00,axn,46.84
2023-07-24T08:24:00,axn,46.42
2023-07-24T08:25:00,axn,46.61
2023-07-24T08:26:00,axn,46.90
2023-07-24T08:27:00,axn,46.55
2023-07-24T08:28:00,axn,46.88
2023-07-24T08:29:00,axn,46.36
2023-07-24T08:30:00,axn,46.24
2023-07-24T08:31:00,axn,46.26
2023-07-24T08:32:00,axn,46.05
2023-07-24T08:33:00,axn,45.92
2023-07-24T08:34:00,axn,46.46
2023-07-24T08:35:00,axn,46.00
2023-07-24T08:36:00,axn,46.10
2023-07-24T08:37:00,axn,46.01
2023-07-24T08:38:00,axn,48.92
2023-07-24T08:39:00,axn,46.42
2023-07-24T08:40:00,axn,46.46
2023-07-24T08:41:00,axn,46.29
2023-07-24T08:42:00,axn,46.16
2023-07-24T08:43:00,axn,50.91
2023-07-24T08:44:00,axn,50.99
2023-07-24T08:45:00,axn,46.44
2023-07-24T08:46:00,axn,46.90
2023-07-24T08:47:00,axn,46.97
2023-07-24T08:48:00,axn,46.82
2023-07-24T08:49:00,axn,46.77
2023-07-24T08:50:00,axn,46.74
2023-07-24T08:51:00,axn,46.65
2023-07-24T08:52:00,axn,46.95
2023-07-24T08:53:00,axn,46.49
2023-07-24T08:54:00,axn,46.54
2023-07-24T08:55:00,axn,46.37
2023-07-24T08:56:00,axn,46.38
2023-07-24T08:57:00,axn,46.42
2023-07-24T08:58:00,axn,46.04
2023-07-24T08:59:00,axn,46.43
2023-07-24T09:00:00,axn,46.25
2023-07-24T09:01:00,axn,46.29
2023-07-24T09:02:00,axn,45.97
2023-07-24T09:03:00,axn,46.19
2023-07-24T09:04:00,axn,46.48
2023-07-24T09:05:00,axn,46.30
2023-07-24T09:06:00,axn,46.51
2023-07-24T09:07:00,axn,46.71
2023-07-24T09:08:00,axn,46.20
2023-07-24T09:09:00,axn,48.96
2023-07-24T09:10:00,axn,48.94
2023-07-24T09:11:00,axn,49.09
2023-07-24T09:12:00,axn,46.51
2023-07-24T09:13:00,axn,53.41
2023-07-24T09:14:00,axn,46.41
2023-07-24T09:15:00,axn,46.28
2023-07-24T09:16:00,axn,46.64
2023-07-24T09:17:00,axn,46.61
2023-07-24T09:18:00,axn,46.48
2023-07-24T09:19:00,axn,46.53
2023-07-24T09:20:00,axn,46.48
2023-07-24T09:21:00,axn,46.41
2023-07-24T09:22:00,axn,46.46
2023-07-24T09:23:00,axn,46.65
2023-07-24T09:24:00,axn,46.56
2023-07-24T09:25:00,axn,46.80
2023-07-24T09:26:00,axn,46.75
2023-07-24T09:27:00,axn,46.59
2023-07-24T09:28:00,axn,46.25
2023-07-24T09:29:00,axn,46.18
2023-07-24T09:30:00,axn,46.10
2023-07-24T09:31:00,axn,46.09
2023-07-24T09:32:00,axn,46.73
2023-07-24T09:33:00,axn,46.42
2023-07-24T09:34:00,axn,46.10
2023-07-24T09:35:00,axn,45.99
2023-07-24T09:36:00,axn,46.48
2023-07-24T09:37:00,axn,46.95
2023-07-24T09:38:00,axn,45.77
2023-07-24T09:39:00,axn,46.31
2023-07-24T09:40:00,axn,45.94
2023-07-24T09:41:00,axn,46.07
2023-07-24T09:42:00,axn,46.68
2023-07-24T09:43:00,axn,46.12
2023-07-24T09:44:00,axn,46.02
2023-07-24T09:45:00,axn,46.24
2023-07-24T09:46:00,axn,46.40
2023-07-24T09:47:00,axn,46.49
2023-07-24T09:48:00,axn,47.04
2023-07-24T09:49:00,axn,46.43
2023-07-24T09:50:00,axn,47.28
2023-07-24T09:51:00,axn,46.78
2023-07-24T09:52:00,axn,46.89
2023-07-24T09:53:00,axn,46.97
2023-07-24T09:54:00,axn,46.82
2023-07-24T09:55:00,axn,46.79
2023-07-24T09:56:00,axn,46.87
2023-07-24T09:57:00,axn,47.27
2023-07-24T09:58:00,axn,46.77
2023-07-24T09:59:00,axn,47.42
2023-07-24T10:00:00,axn,47.49
2023-07-24T10:01:00,axn,47.54
2023-07-24T10:02:00,axn,48.01
2023-07-24T10:03:00,axn,47.82
2023-07-24T10:04:00,axn,47.52
2023-07-24T10:05:00,axn,47.95
2023-07-24T10:06:00,axn,47.57
2023-07-24T10:07:00,axn,47.39
2023-07-24T10:08:00,axn,47.23
2023-07-24T10:09:00,axn,47.96
2023-07-24T10:10:00,axn,47.39
2023-07-24T10:11:00,axn,47.80
2023-07-24T10:12:00,axn,47.50
2023-07-24T10:13:00,axn,47.42
2023-07-24T10:14:00,axn,50.56
2023-07-24T10:15:00,axn,51.02
2023-07-24T10:16:00,axn,47.90
2023-07-24T10:17:00,axn,57.43
2023-07-24T10:18:00,axn,57.47
2023-07-24T10:19:00,axn,57.25
2023-07-24T10:20:00,axn,56.83
2023-07-24T10:21:00,axn,47.34
2023-07-24T10:22:00,axn,46.74
2023-07-24T10:23:00,axn,47.44
2023-07-24T10:24:00,axn,47.20
2023-07-24T10:25:00,axn,49.90
2023-07-24T10:26:00,axn,50.00
2023-07-24T10:27:00,axn,49.89
2023-07-24T10:28:00,axn,47.15
2023-07-24T10:29:00,axn,47.21
2023-07-24T10:30:00,axn,47.51
2023-07-24T10:31:00,axn,47.43
2023-07-24T10:32:00,axn,47.76
2023-07-24T10:33:00,axn,47.40
2023-07-24T10:34:00,axn,47.37
2023-07-24T10:35:00,axn,48.79
2023-07-24T10:36:00,axn,48.20
2023-07-24T10:37:00,axn,47.23
2023-07-24T10:38:00,axn,47.23
2023-07-24T10:39:00,axn,47.11
2023-07-24T10:40:00,axn,47.32
2023-07-24T10:41:00,axn,47.19
2023-07-24T10:42:00,axn,47.61
2023-07-24T10:43:00,axn,47.24
2023-07-24T10:44:00,axn,46.90
2023-07-24T10:45:00,axn,46.80
2023-07-24T10:46:00,axn,46.59
2023-07-24T10:47:00,axn,46.70
2023-07-24T10:48:00,axn,46.50
2023-07-24T10:49:00,axn,46.50
2023-07-24T10:50:00,axn,46.57
2023-07-24T10:51:00,axn,46.35
2023-07-24T10:52:00,axn,46.02
2023-07-24T10:53:00,axn,46.14
2023-07-24T10:54:00,axn,45.59
2023-07-24T10:55:00,axn,45.95
2023-07-24T10:56:00,axn,45.82
2023-07-24T10:57:00,axn,47.11
2023-07-24T10:58:00,axn,46.41
2023-07-24T10:59:00,axn,46.31
2023-07-24T11:00:00,axn,46.45
2023-07-24T11:01:00,axn,45.87
2023-07-24T11:02:00,axn,46.09
2023-07-24T11:03:00,axn,46.11
2023-07-24T11:04:00,axn,46.31
2023-07-24T11:05:00,axn,47.09
2023-07-24T11:06:00,axn,47.09
2023-07-24T11:07:00,axn,48.14
2023-07-24T11:08:00,axn,48.34
2023-07-24T11:09:00,axn,48.33
2023-07-24T11:10:00,axn,48.51
2023-07-24T11:11:00,axn,48.45
2023-07-24T11:12:00,axn,48.39
2023-07-24T11:13:00,axn,48.48
2023-07-24T11:14:00,axn,48.29
2023-07-24T11:15:00,axn,48.34
2023-07-24T11:16:00,axn,48.42
2023-07-24T11:17:00,axn,48.06
2023-07-24T11:18:00,axn,51.04
2023-07-24T11:19:00,axn,51.47
2023-07-24T11:20:00,axn,51.76
2023-07-24T11:21:00,axn,48.69
2023-07-24T11:22:00,axn,48.79
2023-07-24T11:23:00,axn,48.86
2023-07-24T11:24:00,axn,64.71
2023-07-24T11:25:00,axn,62.57
2023-07-24T11:26:00,axn,62.95
2023-07-24T11:27:00,axn,62.68
2023-07-24T11:28:00,axn,48.35
2023-07-24T11:29:00,axn,48.34
2023-07-24T11:30:00,axn,48.46
2023-07-24T11:31:00,axn,48.03
2023-07-24T11:32:00,axn,48.08
2023-07-24T11:33:00,axn,47.98
2023-07-24T11:34:00,axn,47.73
2023-07-24T11:35:00,axn,48.32
2023-07-24T11:36:00,axn,47.93
2023-07-24T11:37:00,axn,47.88
2023-07-24T11:38:00,axn,47.92
2023-07-24T11:39:00,axn,47.72
2023-07-24T11:40:00,axn,47.76
2023-07-24T11:41:00,axn,47.79
2023-07-24T11:42:00,axn,47.69
2023-07-24T11:43:00,axn,48.24
2023-07-24T11:44:00,axn,47.71
2023-07-24T11:45:00,axn,47.79
2023-07-24T11:46:00,axn,48.16
2023-07-24T11:47:00,axn,48.00
2023-07-24T11:48:00,axn,47.90
2023-07-24T11:49:00,axn,48.03
2023-07-24T11:50:00,axn,48.12
2023-07-24T11:51:00,axn,47.99
2023-07-24T11:52:00,axn,47.60
2023-07-24T11:53:00,axn,49.36
2023-07-24T11:54:00,axn,48.69
2023-07-24T11:55:00,axn,47.08
2023-07-24T11:56:00,axn,46.96
2023-07-24T11:57:00,axn,46.83
2023-07-24T11:58:00,axn,46.86
2023-07-24T11:59:00,axn,47.20
2023-07-24T12:00:00,axn,46.76
2023-07-24T12:01:00,axn,46.79
2023-07-24T12:02:00,axn,47.14
2023-07-24T12:03:00,axn,46.85
2023-07-24T12:04:00,axn,47.02
2023-07-24T12:05:00,axn,47.53
2023-07-24T12:06:00,axn,46.85
2023-07-24T12:07:00,axn,47.28
2023-07-24T12:08:00,axn,47.17
2023-07-24T12:09:00,axn,47.04
2023-07-24T12:10:00,axn,46.99
2023-07-24T12:11:00,axn,47.12
2023-07-24T12:12:00,axn,47.20
2023-07-24T12:13:00,axn,47.43
2023-07-24T12:14:00,axn,47.48
2023-07-24T12:15:00,axn,47.48
2023-07-24T12:16:00,axn,47.46
2023-07-24T12:17:00,axn,47.54
2023-07-24T12:18:00,axn,47.67
2023-07-24T12:19:00,axn,47.91
2023-07-24T12:20:00,axn,47.48
2023-07-24T12:21:00,axn,47.30
2023-07-24T12:22:00,axn,48.19
2023-07-24T12:23:00,axn,47.49
2023-07-24T12:24:00,axn,47.45
2023-07-24T12:25:00,axn,52.90
2023-07-24T12:26:00,axn,50.14
2023-07-24T12:27:00,axn,50.15
2023-07-24T12:28:00,axn,47.29
2023-07-24T12:29:00,axn,47.06
2023-07-24T12:30:00,axn,47.03
2023-07-24T12:31:00,axn,46.78
2023-07-24T12:32:00,axn,46.83
2023-07-24T12:33:00,axn,46.16
2023-07-24T12:34:00,axn,45.41
2023-07-24T12:35:00,axn,45.99
2023-07-24T12:36:00,axn,45.97
2023-07-24T12:37:00,axn,46.35
2023-07-24T12:38:00,axn,46.76
2023-07-24T12:39:00,axn,46.31
2023-07-24T12:40:00,axn,46.21
2023-07-24T12:41:00,axn,46.20
2023-07-24T12:42:00,axn,46.16
2023-07-24T12:43:00,axn,45.86
2023-07-24T12:44:00,axn,45.71
2023-07-24T12:45:00,axn,45.72
2023-07-24T12:46:00,axn,45.75
2023-07-24T12:47:00,axn,45.97
2023-07-24T12:48:00,axn,52.59
2023-07-24T12:49:00,axn,52.68
2023-07-24T12:50:00,axn,52.57
2023-07-24T12:51:00,axn,47.18
2023-07-24T12:52:00,axn,47.09
2023-07-24T12:53:00,axn,48.08
2023-07-24T12:54:00,axn,47.50
2023-07-24T12:55:00,axn,47.37
2023-07-24T12:56:00,axn,47.33
2023-07-24T12:57:00,axn,47.32
2023-07-24T12:58:00,axn,47.36
2023-07-24T12:59:00,axn,47.50
2023-07-24T13:00:00,axn,48.10
2023-07-24T13:01:00,axn,48.18
2023-07-24T13:02:00,axn,48.13
2023-07-24T13:03:00,axn,48.09
2023-07-24T13:04:00,axn,46.99
2023-07-24T13:05:00,axn,47.14
2023-07-24T13:06:00,axn,46.74
2023-07-24T13:07:00,axn,45.73
2023-07-24T13:08:00,axn,45.09
2023-07-24T13:09:00,axn,45.17
2023-07-24T13:10:00,axn,45.96
2023-07-24T13:11:00,axn,46.20
2023-07-24T13:12:00,axn,46.48
2023-07-24T13:13:00,axn,45.92
2023-07-24T13:14:00,axn,45.70
2023-07-24T13:15:00,axn,45.41
2023-07-24T13:16:00,axn,45.90
2023-07-24T13:17:00,axn,45.18
2023-07-24T13:18:00,axn,45.25